UAL40 KEWR-LIRF

Flight info

Callsign UAL40
Flight time N/A
Altitude 33000
Route MERIT DCT HFD DCT PUT DCT BOS DCT KANNI N171E PORTI/M083F330 DCT 47N050W 49N040W 50N030W 51N020W DCT DINIM DCT ELSOX DCT TAKAS/N0484F330 DCT ALUTA DCT KORER DCT LEMKA DCT BEBIX DCT VALKU DCT TIS DCT MEBAK DCT GIPNO DCT BALSI DCT OBIGO DCT ROBEX DCT LAPRI DCT MOGBO DCT ELB DCT ELKAP
Aircraft B77W/H-SDE1E2E3FGHIJ2J3J4J5M1RWXY/LB1D1

Departure

Time N/A
Airport Newark Liberty International Airport (KEWR)

Arrival

Time 2026-05-03 21:16
Airport Rome–Fiumicino Leonardo da Vinci International Airport (LIRF)
Time Latitude Longitude Altitude Speed Heading
2026-05-03 20:15 49.35397 -8.96424 35616 ft 498 kts 119°
2026-05-03 20:15 49.33721 -8.91777 35874 ft 498 kts 119°
2026-05-03 20:15 49.32058 -8.87175 36131 ft 497 kts 119°
2026-05-03 20:15 49.30380 -8.82540 36352 ft 497 kts 119°
2026-05-03 20:16 49.28700 -8.77908 36565 ft 498 kts 119°
2026-05-03 20:16 49.27015 -8.73271 36764 ft 498 kts 119°
2026-05-03 20:16 49.25329 -8.68637 36871 ft 499 kts 119°
2026-05-03 20:17 49.21970 -8.59433 36938 ft 496 kts 119°
2026-05-03 20:17 49.18610 -8.50255 36930 ft 493 kts 120°
2026-05-03 20:18 49.15249 -8.41109 36938 ft 493 kts 120°
2026-05-03 20:18 49.11877 -8.31965 36938 ft 494 kts 120°
2026-05-03 20:19 49.08497 -8.22829 36940 ft 494 kts 120°
2026-05-03 20:19 49.05130 -8.13756 36938 ft 495 kts 120°
2026-05-03 20:20 49.01329 -8.02579 36910 ft 496 kts 109°
2026-05-03 20:20 48.99967 -7.92304 36925 ft 497 kts 92°
2026-05-03 20:21 49.00107 -7.81779 36938 ft 498 kts 88°
2026-05-03 20:21 49.00310 -7.71237 36936 ft 499 kts 89°
2026-05-03 20:22 49.00415 -7.60652 36939 ft 500 kts 90°
2026-05-03 20:22 48.99982 -7.50110 36935 ft 499 kts 100°
2026-05-03 20:23 48.98260 -7.39899 36933 ft 497 kts 110°
2026-05-03 20:23 48.95883 -7.30063 36934 ft 498 kts 111°
2026-05-03 20:24 48.93463 -7.20192 36936 ft 498 kts 111°
2026-05-03 20:24 48.91066 -7.10306 36937 ft 498 kts 111°
2026-05-03 20:25 48.88679 -7.00408 36929 ft 498 kts 111°
2026-05-03 20:25 48.86695 -6.92193 36931 ft 498 kts 111°
2026-05-03 20:26 48.84300 -6.82322 36937 ft 498 kts 111°
2026-05-03 20:26 48.81501 -6.70856 36936 ft 498 kts 111°
2026-05-03 20:27 48.79481 -6.62615 36939 ft 498 kts 111°
2026-05-03 20:27 48.77065 -6.52805 36935 ft 498 kts 112°
2026-05-03 20:28 48.74636 -6.42978 36932 ft 498 kts 112°
2026-05-03 20:28 48.72194 -6.33147 36951 ft 498 kts 112°
2026-05-03 20:29 48.69740 -6.23311 36935 ft 498 kts 112°
2026-05-03 20:29 48.67283 -6.13503 36933 ft 498 kts 112°
2026-05-03 20:30 48.64832 -6.03763 36938 ft 498 kts 112°
2026-05-03 20:30 48.62355 -5.93962 36941 ft 499 kts 112°
2026-05-03 20:31 48.59872 -5.84179 36949 ft 499 kts 112°
2026-05-03 20:31 48.57376 -5.74387 36951 ft 499 kts 112°
2026-05-03 20:32 48.54874 -5.64615 36931 ft 499 kts 113°
2026-05-03 20:32 48.52378 -5.54905 36941 ft 499 kts 113°
2026-05-03 20:33 48.49860 -5.45156 36936 ft 499 kts 113°
2026-05-03 20:33 48.47335 -5.35416 36947 ft 499 kts 113°
2026-05-03 20:34 48.36000 -4.92153 36943 ft 499 kts 114°
2026-05-03 20:34 48.15174 -4.14785 36970 ft 499 kts 115°
2026-05-03 20:35 47.93855 -3.38169 36908 ft 498 kts 116°
2026-05-03 20:35 47.72231 -2.62852 36929 ft 497 kts 117°
2026-05-03 20:35 47.58804 -2.27979 36931 ft 481 kts 130°
2026-05-03 20:36 47.43537 -1.95278 36979 ft 486 kts 129°
2026-05-03 20:36 47.12872 -1.29252 36976 ft 489 kts 130°
2026-05-03 20:37 46.81730 -0.63825 36957 ft 491 kts 131°
2026-05-03 20:37 46.51489 0.03157 36874 ft 500 kts 125°
2026-05-03 20:37 46.37597 0.37589 36848 ft 489 kts 127°
2026-05-03 20:38 46.23736 0.71218 36931 ft 487 kts 127°
2026-05-03 20:38 46.09605 1.05115 37035 ft 497 kts 127°
2026-05-03 20:38 45.95393 1.39758 37106 ft 519 kts 116°
2026-05-03 20:38 45.96623 1.82091 37082 ft 529 kts 85°
2026-05-03 20:39 45.97926 2.22919 36868 ft 510 kts 91°
2026-05-03 20:39 45.96864 3.03246 37094 ft 494 kts 110°
2026-05-03 20:39 45.90281 3.42391 37140 ft 512 kts 106°
2026-05-03 20:40 45.83987 3.82446 37028 ft 516 kts 106°
2026-05-03 20:40 45.77713 4.22307 36910 ft 507 kts 107°
2026-05-03 20:40 45.71406 4.61214 36897 ft 498 kts 107°
2026-05-03 20:40 45.65026 4.99773 37069 ft 501 kts 107°
2026-05-03 20:41 45.58414 5.38838 37164 ft 512 kts 107°
2026-05-03 20:41 45.38502 6.13155 37101 ft 480 kts 138°
2026-05-03 20:42 45.30462 6.26155 37048 ft 494 kts 133°
2026-05-03 20:42 45.26161 6.33840 37081 ft 499 kts 133°
2026-05-03 20:43 45.17435 6.49059 37091 ft 498 kts 133°
2026-05-03 20:43 45.09941 6.65702 37142 ft 511 kts 115°
2026-05-03 20:44 45.05425 6.84965 37127 ft 516 kts 111°
2026-05-03 20:44 45.00879 7.04045 37156 ft 506 kts 112°
2026-05-03 20:45 44.97973 7.23327 37157 ft 510 kts 94°
2026-05-03 20:45 44.96200 7.42922 37152 ft 502 kts 125°
2026-05-03 20:45 44.91653 7.50151 37139 ft 491 kts 141°
2026-05-03 20:46 44.86640 7.56913 37065 ft 500 kts 140°
2026-05-03 20:46 44.76684 7.70770 37124 ft 505 kts 140°
2026-05-03 20:47 44.66777 7.84515 37111 ft 497 kts 140°
2026-05-03 20:47 44.56976 7.98015 37098 ft 490 kts 140°
2026-05-03 20:48 44.47184 8.11428 37132 ft 496 kts 140°
2026-05-03 20:48 44.37200 8.25042 37135 ft 505 kts 140°
2026-05-03 20:49 44.27102 8.38751 37119 ft 504 kts 140°
2026-05-03 20:49 44.17106 8.52253 37131 ft 496 kts 140°
2026-05-03 20:50 44.07217 8.65536 37145 ft 492 kts 140°
2026-05-03 20:50 43.97343 8.78732 37150 ft 499 kts 140°
2026-05-03 20:51 43.87241 8.92171 37135 ft 507 kts 140°
2026-05-03 20:51 43.77053 9.05665 37125 ft 503 kts 140°
2026-05-03 20:52 43.66997 9.18915 37129 ft 495 kts 140°
2026-05-03 20:52 43.57036 9.31971 37128 ft 493 kts 140°
2026-05-03 20:53 43.47135 9.44887 37139 ft 494 kts 140°
2026-05-03 20:53 43.37048 9.57982 37133 ft 502 kts 140°
2026-05-03 20:54 43.26819 9.71202 37151 ft 507 kts 140°
2026-05-03 20:54 43.11462 9.90934 37161 ft 499 kts 140°
2026-05-03 20:55 43.01387 10.03797 36691 ft 495 kts 140°
2026-05-03 20:55 42.96327 10.10233 35862 ft 498 kts 140°
2026-05-03 20:55 42.91247 10.16681 34403 ft 501 kts 140°
2026-05-03 20:56 42.86111 10.23185 32461 ft 506 kts 140°
2026-05-03 20:56 42.80940 10.29723 30845 ft 504 kts 140°
2026-05-03 20:56 42.75932 10.36255 29474 ft 495 kts 131°
2026-05-03 20:56 42.72958 10.44483 28208 ft 491 kts 103°
2026-05-03 20:57 42.72502 10.53641 27046 ft 481 kts 91°
2026-05-03 20:57 42.72135 10.62614 25881 ft 470 kts 99°
2026-05-03 20:57 42.69456 10.70505 24775 ft 455 kts 125°
2026-05-03 20:57 42.67068 10.75470 24016 ft 452 kts 123°
2026-05-03 20:58 42.65381 10.79081 23364 ft 450 kts 123°
2026-05-03 20:58 42.63719 10.82685 22726 ft 447 kts 123°
2026-05-03 20:58 42.62081 10.86254 22138 ft 444 kts 123°
2026-05-03 20:58 42.60478 10.89749 21593 ft 440 kts 123°
2026-05-03 20:59 42.58867 10.93254 21036 ft 436 kts 123°
2026-05-03 20:59 42.57255 10.96754 20276 ft 438 kts 123°
2026-05-03 20:59 42.55643 11.00248 19689 ft 436 kts 123°
2026-05-03 20:59 42.54044 11.03710 19197 ft 431 kts 123°
2026-05-03 21:00 42.52458 11.07138 18714 ft 427 kts 123°
2026-05-03 21:00 42.51926 11.08288 18557 ft 425 kts 123°
2026-05-03 21:00 42.49328 11.13893 17688 ft 418 kts 123°
2026-05-03 21:00 42.47787 11.17215 17193 ft 413 kts 123°
2026-05-03 21:01 42.46260 11.20502 16726 ft 409 kts 123°
2026-05-03 21:01 42.44783 11.23679 16465 ft 385 kts 123°
2026-05-03 21:01 42.43398 11.26653 16135 ft 363 kts 123°
2026-05-03 21:01 42.42097 11.29442 15752 ft 347 kts 123°
2026-05-03 21:02 42.40837 11.32140 15364 ft 331 kts 123°
2026-05-03 21:02 42.39631 11.34719 15008 ft 317 kts 123°
2026-05-03 21:02 42.38476 11.37188 14664 ft 304 kts 123°
2026-05-03 21:02 42.37366 11.39560 14330 ft 292 kts 123°
2026-05-03 21:03 42.36297 11.41840 14007 ft 282 kts 122°
2026-05-03 21:03 42.35230 11.44116 13701 ft 296 kts 122°
2026-05-03 21:03 42.34087 11.46552 13350 ft 313 kts 122°
2026-05-03 21:03 42.32911 11.49058 12971 ft 317 kts 122°
2026-05-03 21:04 42.31746 11.51538 12596 ft 316 kts 123°
2026-05-03 21:04 42.30570 11.54042 12219 ft 314 kts 123°
2026-05-03 21:04 42.29399 11.56531 11858 ft 313 kts 123°
2026-05-03 21:04 42.28235 11.59003 11504 ft 311 kts 123°
2026-05-03 21:05 42.27072 11.61470 11148 ft 309 kts 123°
2026-05-03 21:05 42.25920 11.63914 10794 ft 308 kts 123°
2026-05-03 21:05 42.24771 11.66351 10453 ft 306 kts 123°
2026-05-03 21:05 42.23642 11.68741 10300 ft 297 kts 123°
2026-05-03 21:06 42.22543 11.71065 10123 ft 291 kts 123°
2026-05-03 21:06 42.21453 11.73369 9747 ft 290 kts 122°
2026-05-03 21:06 42.20426 11.75635 9404 ft 276 kts 121°
2026-05-03 21:06 42.19487 11.77758 9405 ft 265 kts 121°
2026-05-03 21:07 42.18525 11.79936 9200 ft 275 kts 121°
2026-05-03 21:07 42.17539 11.82164 8853 ft 276 kts 121°
2026-05-03 21:07 42.16554 11.84388 8517 ft 276 kts 121°
2026-05-03 21:07 42.15578 11.86585 8175 ft 266 kts 122°
2026-05-03 21:08 42.14656 11.88661 7855 ft 251 kts 122°
2026-05-03 21:08 42.13771 11.90651 7593 ft 248 kts 122°
2026-05-03 21:08 42.12875 11.92660 7326 ft 252 kts 122°
2026-05-03 21:08 42.11978 11.94670 7022 ft 254 kts 122°
2026-05-03 21:09 42.11067 11.96711 6745 ft 254 kts 122°
2026-05-03 21:09 42.10147 11.98769 6282 ft 259 kts 122°
2026-05-03 21:09 42.09216 12.00852 5925 ft 259 kts 122°
2026-05-03 21:09 42.08288 12.02928 5603 ft 258 kts 122°
2026-05-03 21:10 42.07365 12.04992 5297 ft 256 kts 122°
2026-05-03 21:10 42.06448 12.07039 4984 ft 255 kts 122°
2026-05-03 21:10 42.05536 12.09073 4682 ft 253 kts 122°
2026-05-03 21:10 42.04628 12.11095 4364 ft 251 kts 122°
2026-05-03 21:11 42.03726 12.13103 4070 ft 250 kts 122°
2026-05-03 21:11 42.02912 12.15138 3891 ft 243 kts 115°
2026-05-03 21:11 42.02247 12.17180 3717 ft 236 kts 114°
2026-05-03 21:11 42.01540 12.19106 3340 ft 225 kts 133°
2026-05-03 21:12 42.00288 12.20067 3186 ft 204 kts 169°
2026-05-03 21:12 41.98919 12.20435 2923 ft 199 kts 168°
2026-05-03 21:12 41.97579 12.20902 2653 ft 197 kts 166°
2026-05-03 21:12 41.96293 12.21380 2528 ft 185 kts 166°
2026-05-03 21:13 41.95087 12.21833 2493 ft 179 kts 167°
2026-05-03 21:13 41.93842 12.22280 2128 ft 188 kts 165°
2026-05-03 21:13 41.92593 12.22789 1704 ft 186 kts 164°
2026-05-03 21:13 41.91414 12.23285 1442 ft 171 kts 164°
2026-05-03 21:14 41.90289 12.23759 1224 ft 172 kts 164°
2026-05-03 21:14 41.89131 12.24246 998 ft 175 kts 164°
2026-05-03 21:14 41.87973 12.24733 747 ft 172 kts 163°
2026-05-03 21:14 41.86838 12.25210 533 ft 171 kts 163°
2026-05-03 21:15 41.85704 12.25688 301 ft 171 kts 163°
2026-05-03 21:15 41.84952 12.26001 154 ft 171 kts 164°
2026-05-03 21:15 41.83819 12.26465 25 ft 167 kts 165°
2026-05-03 21:15 41.82813 12.26888 27 ft 129 kts 161°
2026-05-03 21:16 41.82141 12.27148 14 ft 43 kts 174°
2026-05-03 21:16 41.81863 12.27079 18 ft 20 kts 195°
2026-05-03 21:16 41.81754 12.27046 20 ft 16 kts 175°
2026-05-03 21:16 41.81679 12.27059 24 ft 16 kts 168°
2026-05-03 21:17 41.81570 12.27094 25 ft 16 kts 165°
2026-05-03 21:17 41.81462 12.27133 26 ft 16 kts 163°
2026-05-03 21:17 41.81355 12.27183 24 ft 17 kts 162°
2026-05-03 21:17 41.81234 12.27236 19 ft 18 kts 162°
2026-05-03 21:18 41.81111 12.27286 18 ft 18 kts 163°
2026-05-03 21:18 41.80987 12.27337 17 ft 19 kts 163°
2026-05-03 21:18 41.80858 12.27344 18 ft 19 kts 188°
2026-05-03 21:18 41.80730 12.27310 18 ft 19 kts 197°
2026-05-03 21:19 41.80643 12.27189 18 ft 19 kts 246°
2026-05-03 21:19 41.80602 12.27022 20 ft 19 kts 251°
2026-05-03 21:19 41.80554 12.26859 19 ft 19 kts 248°
2026-05-03 21:19 41.80509 12.26694 18 ft 19 kts 251°
2026-05-03 21:20 41.80465 12.26531 19 ft 19 kts 249°
2026-05-03 21:20 41.80419 12.26367 18 ft 19 kts 249°
2026-05-03 21:20 41.80373 12.26203 19 ft 19 kts 249°
2026-05-03 21:20 41.80327 12.26039 17 ft 19 kts 250°
2026-05-03 21:21 41.80283 12.25874 18 ft 19 kts 250°
2026-05-03 21:21 41.80239 12.25709 19 ft 19 kts 250°
2026-05-03 21:21 41.80194 12.25544 26 ft 19 kts 250°
2026-05-03 21:21 41.80148 12.25380 26 ft 18 kts 248°
2026-05-03 21:22 41.80104 12.25224 25 ft 18 kts 253°
2026-05-03 21:22 41.80099 12.25063 23 ft 18 kts 277°
2026-05-03 21:22 41.80107 12.24898 22 ft 18 kts 262°
2026-05-03 21:22 41.80070 12.24729 17 ft 20 kts 249°
2026-05-03 21:23 41.80019 12.24558 16 ft 20 kts 249°
2026-05-03 21:23 41.79972 12.24382 14 ft 20 kts 250°
2026-05-03 21:23 41.79925 12.24205 17 ft 20 kts 253°
2026-05-03 21:23 41.79909 12.24019 17 ft 20 kts 254°
2026-05-03 21:24 41.79862 12.23844 19 ft 18 kts 250°
2026-05-03 21:24 41.79828 12.23730 17 ft 7 kts 233°
2026-05-03 21:24 41.79778 12.23712 17 ft 8 kts 172°
2026-05-03 21:24 41.79720 12.23733 17 ft 9 kts 162°
2026-05-03 21:25 41.79662 12.23758 18 ft 9 kts 161°
2026-05-03 21:25 41.79604 12.23783 18 ft 9 kts 163°
2026-05-03 21:25 41.79542 12.23808 18 ft 10 kts 163°
2026-05-03 21:25 41.79477 12.23836 18 ft 10 kts 163°
2026-05-03 21:26 41.79411 12.23862 19 ft 10 kts 163°
2026-05-03 21:26 41.79345 12.23889 20 ft 10 kts 162°
2026-05-03 21:26 41.79334 12.23940 20 ft 6 kts 88°
2026-05-03 21:26 41.79343 12.23995 24 ft 6 kts 70°
2026-05-03 21:27 41.79362 12.24045 24 ft 6 kts 49°
2026-05-03 21:27 41.79402 12.24072 25 ft 7 kts 22°
2026-05-03 21:27 41.79448 12.24103 24 ft 8 kts 32°
2026-05-03 21:27 41.79457 12.24111 23 ft 1 kts 36°
2026-05-03 21:28 41.79466 12.24119 26 ft 1 kts 34°
2026-05-03 21:28 41.79471 12.24123 25 ft 1 kts 32°
2026-05-03 21:28 41.79479 12.24130 25 ft 0 kts 31°
2026-05-03 21:30 41.79478 12.24132 25 ft 0 kts 25°